TimeCST,TemperatureF,Dew PointF,Humidity,Sea Level PressureIn,VisibilityMPH,Wind Direction,Wind SpeedMPH,Gust SpeedMPH,PrecipitationIn,Events,Conditions,WindDirDegrees,DateUTC
12:35 AM,39.2,33.8,81,30.13,9.0,North,25.3,40.3,N/A,Rain,Light Rain,10,2013-03-05 06:35:00
12:55 AM,37.4,33.8,87,30.14,9.0,North,26.5,38.0,0.01,Rain,Light Rain,10,2013-03-05 06:55:00
1:15 AM,37.4,32.0,81,30.15,9.0,NNE,27.6,39.1,N/A,Rain,Light Rain,20,2013-03-05 07:15:00
1:35 AM,37.4,32.0,81,30.14,10.0,NNE,17.3,-,N/A,Rain,Light Rain,20,2013-03-05 07:35:00
1:55 AM,39.2,32.0,75,30.15,10.0,North,16.1,21.9,N/A,,Overcast,10,2013-03-05 07:55:00
2:15 AM,39.2,32.0,75,30.17,10.0,North,12.7,-,N/A,,Overcast,350,2013-03-05 08:15:00
2:35 AM,39.2,33.8,81,30.18,10.0,North,11.5,18.4,N/A,,Mostly Cloudy,350,2013-03-05 08:35:00
2:55 AM,39.2,33.8,81,30.17,10.0,North,15.0,-,N/A,,Mostly Cloudy,350,2013-03-05 08:55:00
3:15 AM,39.2,32.0,75,30.18,10.0,NNW,16.1,19.6,N/A,,Overcast,340,2013-03-05 09:15:00
3:35 AM,39.2,26.6,61,30.18,10.0,North,21.9,27.6,N/A,,Mostly Cloudy,350,2013-03-05 09:35:00
3:55 AM,37.4,19.4,48,30.20,10.0,North,23.0,34.5,N/A,,Partly Cloudy,350,2013-03-05 09:55:00
4:35 AM,35.6,19.4,52,30.23,10.0,NNW,24.2,32.2,N/A,,Unknown,340,2013-03-05 10:35:00
4:55 AM,33.8,17.6,52,30.24,10.0,NNW,19.6,28.8,N/A,,Clear,340,2013-03-05 10:55:00
5:15 AM,33.8,17.6,52,30.26,10.0,North,20.7,28.8,N/A,,Clear,350,2013-03-05 11:15:00
5:35 AM,32.0,17.6,55,30.27,10.0,NNW,18.4,25.3,N/A,,Clear,340,2013-03-05 11:35:00
5:55 AM,32.0,17.6,55,30.28,10.0,North,15.0,20.7,N/A,,Clear,350,2013-03-05 11:55:00
6:55 AM,32.0,17.6,55,30.32,10.0,North,11.5,-,N/A,,Clear,350,2013-03-05 12:55:00
7:15 AM,30.2,19.4,64,30.33,10.0,NNW,13.8,-,N/A,,Clear,340,2013-03-05 13:15:00
7:35 AM,32.0,19.4,60,30.34,10.0,NNW,13.8,21.9,N/A,,Clear,340,2013-03-05 13:35:00
7:55 AM,32.0,19.4,60,30.35,10.0,NNW,16.1,23.0,N/A,,Clear,330,2013-03-05 13:55:00
8:15 AM,32.0,17.6,55,30.36,10.0,NNW,17.3,29.9,N/A,,Clear,340,2013-03-05 14:15:00
8:35 AM,33.8,17.6,52,30.37,10.0,NNW,18.4,25.3,N/A,,Clear,340,2013-03-05 14:35:00
8:55 AM,35.6,17.6,48,30.38,10.0,NNW,19.6,25.3,N/A,,Clear,340,2013-03-05 14:55:00
9:15 AM,35.6,15.8,44,30.38,10.0,North,19.6,31.1,N/A,,Clear,350,2013-03-05 15:15:00
9:35 AM,37.4,15.8,41,30.38,10.0,North,21.9,27.6,N/A,,Clear,350,2013-03-05 15:35:00
9:55 AM,39.2,14.0,36,30.38,10.0,North,23.0,31.1,N/A,,Clear,360,2013-03-05 15:55:00
10:15 AM,39.2,14.0,36,30.38,10.0,North,20.7,31.1,N/A,,Clear,350,2013-03-05 16:15:00
10:35 AM,39.2,15.8,39,30.39,10.0,NNW,18.4,32.2,N/A,,Clear,330,2013-03-05 16:35:00
10:55 AM,41.0,15.8,36,30.38,10.0,NNW,20.7,31.1,N/A,,Clear,330,2013-03-05 16:55:00
11:15 AM,41.0,14.0,33,30.39,10.0,NNW,24.2,31.1,N/A,,Clear,330,2013-03-05 17:15:00
11:35 AM,41.0,15.8,36,30.39,10.0,NNW,18.4,38.0,N/A,,Clear,330,2013-03-05 17:35:00
11:55 AM,41.0,17.6,39,30.39,10.0,NW,21.9,32.2,N/A,,Clear,320,2013-03-05 17:55:00
12:15 PM,41.0,17.6,39,30.39,10.0,NNW,23.0,32.2,N/A,,Clear,340,2013-03-05 18:15:00
12:35 PM,42.8,17.6,36,30.39,10.0,NNW,19.6,29.9,N/A,,Clear,340,2013-03-05 18:35:00
12:55 PM,44.6,17.6,34,30.38,10.0,NNW,20.7,28.8,N/A,,Clear,340,2013-03-05 18:55:00
1:15 PM,44.6,17.6,34,30.37,10.0,North,20.7,28.8,N/A,,Clear,350,2013-03-05 19:15:00
1:35 PM,44.6,19.4,37,30.36,10.0,NNW,21.9,26.5,N/A,,Clear,340,2013-03-05 19:35:00
1:55 PM,46.4,19.4,34,30.35,10.0,NNW,21.9,28.8,N/A,,Clear,340,2013-03-05 19:55:00
2:15 PM,46.4,19.4,34,30.33,10.0,NNW,19.6,27.6,N/A,,Clear,340,2013-03-05 20:15:00
2:35 PM,46.4,17.6,32,30.33,10.0,North,19.6,25.3,N/A,,Clear,360,2013-03-05 20:35:00
2:55 PM,46.4,19.4,34,30.34,10.0,NNW,18.4,24.2,N/A,,Clear,340,2013-03-05 20:55:00
3:15 PM,46.4,19.4,34,30.34,10.0,NNW,17.3,23.0,N/A,,Clear,340,2013-03-05 21:15:00
3:35 PM,46.4,17.6,32,30.34,10.0,NNW,16.1,25.3,N/A,,Clear,340,2013-03-05 21:35:00
3:55 PM,46.4,19.4,34,30.34,10.0,North,16.1,21.9,N/A,,Clear,350,2013-03-05 21:55:00
4:15 PM,46.4,19.4,34,30.34,10.0,NNW,15.0,24.2,N/A,,Clear,330,2013-03-05 22:15:00
4:35 PM,46.4,19.4,34,30.34,9.0,NNW,13.8,24.2,N/A,,Clear,330,2013-03-05 22:35:00
4:55 PM,46.4,17.6,32,30.34,10.0,NNW,17.3,23.0,N/A,,Clear,330,2013-03-05 22:55:00
5:15 PM,46.4,19.4,34,30.34,10.0,NNW,16.1,19.6,N/A,,Clear,330,2013-03-05 23:15:00
5:35 PM,44.6,19.4,37,30.35,10.0,NNW,15.0,21.9,N/A,,Clear,330,2013-03-05 23:35:00
5:55 PM,42.8,19.4,39,30.35,10.0,NNW,11.5,-,N/A,,Clear,340,2013-03-05 23:55:00
6:15 PM,41.0,19.4,42,30.35,10.0,North,-9999.0,-,N/A,,Clear,0,2013-03-06 00:15:00
6:35 PM,39.2,19.4,45,30.35,10.0,NNW,9.2,-,N/A,,Clear,340,2013-03-06 00:35:00
6:55 PM,39.2,19.4,45,30.36,10.0,NNW,8.1,-,N/A,,Clear,330,2013-03-06 00:55:00
7:15 PM,37.4,19.4,48,30.37,10.0,NNW,6.9,-,N/A,,Clear,330,2013-03-06 01:15:00
7:35 PM,35.6,19.4,52,30.37,10.0,NNW,6.9,-,N/A,,Clear,340,2013-03-06 01:35:00
7:55 PM,35.6,21.2,56,30.37,10.0,North,9.2,-,N/A,,Clear,360,2013-03-06 01:55:00
8:15 PM,33.8,21.2,60,30.37,10.0,NW,4.6,-,N/A,,Clear,320,2013-03-06 02:15:00
8:35 PM,35.6,21.2,56,30.38,10.0,NNW,4.6,-,N/A,,Unknown,340,2013-03-06 02:35:00
8:55 PM,33.8,21.2,60,30.38,10.0,North,5.8,-,N/A,,Clear,10,2013-03-06 02:55:00
9:15 PM,32.0,21.2,64,30.38,10.0,North,9.2,-,N/A,,Clear,10,2013-03-06 03:15:00
9:35 PM,32.0,21.2,64,30.38,10.0,North,6.9,-,N/A,,Unknown,10,2013-03-06 03:35:00
9:55 PM,32.0,21.2,64,30.39,10.0,North,5.8,-,N/A,,Unknown,360,2013-03-06 03:55:00
10:15 PM,32.0,21.2,64,30.40,7.0,NNW,4.6,-,N/A,,Unknown,340,2013-03-06 04:15:00
10:35 PM,32.0,21.2,64,30.40,10.0,NNW,5.8,-,N/A,,Unknown,340,2013-03-06 04:35:00
10:55 PM,32.0,21.2,64,30.40,10.0,North,5.8,-,N/A,,Unknown,360,2013-03-06 04:55:00
11:15 PM,32.0,21.2,64,30.41,10.0,NNW,3.5,-,N/A,,Unknown,330,2013-03-06 05:15:00
11:35 PM,32.0,21.2,64,30.40,10.0,North,3.5,-,N/A,,Unknown,360,2013-03-06 05:35:00
11:55 PM,32.0,21.2,64,30.40,10.0,North,4.6,-,N/A,,Clear,10,2013-03-06 05:55:00